Ashtabula, OH

3:32 PM EST on December 09, 2019 (GMT -0500)
Ashtabula County

Weather History for KHZY - September, 2019

Change the Weather History Date:

Monday, September 23, 2019

  Actual Average (KGKJ) Record (KGKJ)
Temperature  
Mean Temperature 68 °F -  
Max Temperature 75 °F 68 °F 89 °F (2017)
Min Temperature 64 °F 45 °F 34 °F (1948)
Cooling Degree Days 4    
Growing Degree Days 18 (Base 50)    
Moisture  
Dew Point 63 °F    
Average Humidity 80    
Maximum Humidity 97    
Minimum Humidity 59    
Precipitation  
Precipitation 0.21 in - - ()
Sea Level Pressure  
Sea Level Pressure 29.87 in    
Wind  
Wind Speed 10 mph (WSW)    
Max Wind Speed 20 mph    
Max Gust Speed 28 mph    
Visibility 9 miles    
Events Rain    
Averages and records for this station are not official NWS values.
T = Trace of Precipitation, MM = Missing Value Source: NWS Daily Summary

Daily Weather History Graph

Daily Weather History Graph

Search for Another Location

Airport or City:

Astronomy

Sep. 23, 2019 Rise Set
Actual Time 7:11 AM EDT 7:18 PM EDT
Civil Twilight 6:43 AM EDT 7:46 PM EDT
Nautical Twilight 6:10 AM EDT 8:18 PM EDT
Astronomical Twilight 5:37 AM EDT 8:51 PM EDT
Moon 12:47 AM EDT (9/23) 4:16 PM EDT (9/23)
Length of Visible Light 13h 03m
Length of Day
12h 07m
Waning Crescent, 33% of the Moon is Illuminated
Sep 23
Waning Crescent
Sep 28
New
Oct 5
First Quarter
Oct 13
Full
Oct 21
Last Quarter

Hourly Weather History & Observations

Time (EDT) Temp. Dew Point Humidity Pressure Visibility Wind Dir Wind Speed Gust Speed Precip Events Conditions
12:53 AM 73.0 °F 59.0 °F 61% 29.89 in 10.0 mi SSW 9.2 mph - N/A   Clear
1:53 AM 73.0 °F 59.0 °F 61% 29.88 in 10.0 mi SSW 10.4 mph - N/A   Scattered Clouds
2:53 AM 73.0 °F 59.0 °F 61% 29.87 in 10.0 mi SSW 10.4 mph - N/A   Scattered Clouds
3:53 AM 73.0 °F 57.9 °F 59% 29.86 in 10.0 mi SSW 11.5 mph - N/A   Overcast
4:53 AM 72.0 °F 60.1 °F 66% 29.86 in 10.0 mi WSW 11.5 mph - 0.00 in Rain Light Rain
5:53 AM 68.0 °F 62.1 °F 81% 29.86 in 8.0 mi SW 9.2 mph - 0.01 in Rain Light Rain
6:53 AM 66.9 °F 64.0 °F 90% 29.86 in 10.0 mi SSW 10.4 mph - 0.02 in   Overcast
7:53 AM 66.9 °F 64.0 °F 90% 29.86 in 10.0 mi SSW 6.9 mph - N/A   Mostly Cloudy
8:53 AM 69.1 °F 64.9 °F 87% 29.86 in 10.0 mi SSW 8.1 mph - N/A   Overcast
9:16 AM 69.1 °F 64.9 °F 87% 29.88 in 10.0 mi SSW 12.7 mph - N/A   Overcast
9:53 AM 69.1 °F 64.9 °F 87% 29.86 in 10.0 mi SSW 9.2 mph - 0.00 in   Overcast
10:14 AM 66.9 °F 64.9 °F 93% 29.88 in 0.8 mi SW 5.8 mph - 0.12 in Rain Heavy Rain
10:21 AM 66.9 °F 66.0 °F 97% 29.88 in 1.2 mi SW 8.1 mph - 0.13 in Rain Light Rain
10:30 AM 66.9 °F 66.0 °F 97% 29.88 in 2.5 mi SW 6.9 mph - 0.16 in Rain Light Rain
10:38 AM 68.0 °F 66.0 °F 93% 29.88 in 4.0 mi SW 6.9 mph - 0.16 in Rain Light Rain
10:53 AM 68.0 °F 66.9 °F 96% 29.86 in 9.0 mi SSW 8.1 mph - 0.17 in   Overcast
11:14 AM 68.0 °F 66.9 °F 96% 29.87 in 10.0 mi SW 8.1 mph - 0.00 in   Overcast
11:53 AM 69.1 °F 68.0 °F 96% 29.85 in 9.0 mi SW 9.2 mph - 0.00 in   Overcast
12:32 PM 70.0 °F 69.1 °F 97% 29.87 in 10.0 mi West 15.0 mph 20.7 mph 0.01 in   Overcast
12:53 PM 71.1 °F 70.0 °F 96% 29.86 in 10.0 mi West 12.7 mph - 0.01 in   Overcast
1:28 PM 73.0 °F 69.1 °F 87% 29.86 in 10.0 mi West 13.8 mph 20.7 mph N/A   Overcast
1:38 PM 72.0 °F 68.0 °F 87% 29.87 in 10.0 mi West 11.5 mph - N/A   Overcast
1:53 PM 72.0 °F 66.9 °F 84% 29.85 in 10.0 mi WNW 13.8 mph 23.0 mph N/A   Overcast
2:53 PM 73.9 °F 64.0 °F 71% 29.85 in 10.0 mi WNW 19.6 mph 26.5 mph N/A   Partly Cloudy
3:53 PM 73.9 °F 61.0 °F 64% 29.85 in 10.0 mi WNW 19.6 mph 27.6 mph N/A   Scattered Clouds
4:53 PM 73.9 °F 61.0 °F 64% 29.86 in 10.0 mi West 19.6 mph 26.5 mph N/A   Scattered Clouds
5:53 PM 72.0 °F 59.0 °F 64% 29.87 in 10.0 mi West 11.5 mph 27.6 mph N/A   Scattered Clouds
6:53 PM 69.1 °F 57.9 °F 68% 29.88 in 10.0 mi West 12.7 mph 18.4 mph N/A   Scattered Clouds
7:53 PM 66.0 °F 59.0 °F 78% 29.90 in 10.0 mi West 5.8 mph - N/A   Clear
8:53 PM 66.0 °F 57.0 °F 73% 29.91 in 10.0 mi WNW 8.1 mph - N/A   Mostly Cloudy
9:53 PM 64.9 °F 52.0 °F 63% 29.92 in 10.0 mi WNW 6.9 mph - N/A   Clear
10:53 PM 64.9 °F 53.1 °F 65% 29.93 in 10.0 mi WNW 6.9 mph - N/A   Scattered Clouds
11:53 PM 64.9 °F 53.1 °F 65% 29.93 in 10.0 mi NW 10.4 mph - N/A   Mostly Cloudy